Location: Rounton
(54.4000°N, 1.3500°W)
Time: 20:37:03
(UTC+00:00)

A-11 Canister half - Pass Details

Date: 09 December 2021
Orbit: 1516 x 1684 km, 47.2° (Epoch: 19 January)

Event Time Altitude Azimuth Distance (km) Brightness Sun altitude
Rises 09:26:16 0° 268° (W) 4,807 11.3 6.2°
Reaches altitude 10° 09:29:24 10° 265° (W) 3,843 10.8 6.4°
Maximum altitude 09:38:52 55° 191° (S) 1,928 10.1 7.2°
Drops below altitude 10° 09:48:36 10° 118° (ESE) 3,938 12.3 7.9°
Sets 09:51:52 0° 114° (ESE) 4,932 12.6 8.1°
